FW0190 Weather Reports


time (UTC)temp
C
wind
direction
speed
KPH
gust
KPH
rain 1hr
cm
rain 24hr
cm
rain mn
cm
humidity
%
barometer
mb
20260504081933 14 285 3.2 4.8 0.00 0.08 0.08 77 1010.1
20260504081430 14 202 3.2 4.8 0.00 0.08 0.08 78 1008.9
20260504080926 14 40 3.2 9.7 0.13 0.08 0.08 78 1008.0
20260504080423 14 259 0.0 12.9 0.00 0.05 0.05 78 1008.2
20260504070350 12 177 3.2 11.3 0.00 0.00 0.00 81 1008.6
20260504050737 12 226 1.6 1.6 0.00 0.00 0.00 74 1010.4
20260504050235 12 210 1.6 3.2 0.00 0.00 0.00 74 1010.4
20260504045732 12 184 3.2 3.2 0.00 0.15 0.15 74 1010.4
20260504045227 12 255 0.0 3.2 0.00 0.15 0.15 73 1010.6
20260504044725 12 232 1.6 3.2 0.00 0.15 0.15 73 1010.5
20260504044222 12 231 1.6 3.2 0.00 0.15 0.15 73 1010.7
20260504043719 12 184 3.2 3.2 0.00 0.15 0.15 73 1010.7
20260504043216 12 216 1.6 3.2 0.00 0.15 0.15 73 1010.9
20260504042714 12 220 1.6 3.2 0.00 0.15 0.15 73 1010.8
20260504042210 12 220 3.2 3.2 0.00 0.15 0.15 74 1010.9
20260504041706 12 252 0.0 1.6 0.00 0.15 0.15 73 1010.9
20260504041201 13 216 3.2 3.2 0.00 0.15 0.15 73 1011.0
20260504040659 13 222 1.6 3.2 0.00 0.15 0.15 73 1010.9
20260504040156 13 228 0.0 1.6 0.00 0.15 0.15 73 1011.3
20260504035652 13 238 1.6 6.4 0.00 0.15 0.15 73 1011.3
20260504035149 13 263 0.0 1.6 0.00 0.15 0.15 73 1011.1
20260504034647 13 226 1.6 6.4 0.00 0.15 0.15 72 1011.2
20260504034143 13 219 3.2 3.2 0.00 0.15 0.15 72 1011.5
20260504033641 13 196 3.2 3.2 0.00 0.15 0.15 71 1011.6
20260504033138 13 234 1.6 3.2 0.00 0.15 0.15 70 1011.6
20260504032635 14 282 0.0 0.0 0.43 0.15 0.15 69 1012.1
20260504032132 15 194 3.2 3.2 0.89 0.15 0.15 67 1012.4
20260504031629 15 203 3.2 3.2 0.00 0.00 0.00 63 1013.0
20260504031125 15 316 3.2 3.2 0.00 0.00 0.00 62 1012.7
20260504030622 15 80 1.6 3.2 0.00 0.00 0.00 62 1012.2
20260504030119 15 24 3.2 3.2 0.00 0.00 0.00 63 1012.2
20260504025616 15 322 3.2 3.2 0.00 0.00 0.00 63 1011.8
20260504025113 15 20 3.2 3.2 0.00 0.00 0.00 63 1011.6
20260504024610 15 57 3.2 3.2 0.00 0.00 0.00 64 1011.8
20260504024107 15 290 0.0 1.6 0.00 0.00 0.00 62 1011.5
20260504023603 15 307 0.0 0.0 0.00 0.00 0.00 61 1011.7
20260504023059 15 278 0.0 0.0 0.00 0.00 0.00 60 1011.9
20260504022555 15 286 0.0 0.0 0.00 0.00 0.00 60 1011.7
20260504022051 15 283 0.0 0.0 0.00 0.00 0.00 60 1011.5
20260504021549 16 303 1.6 1.6 0.00 0.00 0.00 58 1011.7
20260504021046 16 266 0.0 1.6 0.00 0.00 0.00 57 1011.5
20260504020543 16 254 0.0 0.0 0.00 0.00 0.00 56 1011.8
20260504020039 16 304 0.0 1.6 0.00 0.00 0.00 55 1011.8
20260504015536 16 264 0.0 0.0 0.00 0.00 0.00 53 1011.9
20260504015031 16 270 0.0 0.0 0.00 0.00 0.00 52 1011.7
20260504014528 16 265 0.0 0.0 0.00 0.00 0.00 52 1011.5
20260504014025 16 243 1.6 3.2 0.00 0.00 0.00 52 1011.4
20260504013523 16 228 0.0 0.0 0.00 0.00 0.00 52 1011.6
20260504013020 16 225 1.6 3.2 0.00 0.00 0.00 52 1011.3
20260504012517 16 221 3.2 4.8 0.00 0.00 0.00 51 1011.0
20260504012015 17 211 1.6 4.8 0.00 0.00 0.00 51 1011.1
20260504011511 17 251 0.0 0.0 0.00 0.00 0.00 50 1011.1
20260504011008 17 194 1.6 3.2 0.00 0.00 0.00 50 1010.8
20260504010503 17 207 3.2 4.8 0.00 0.00 0.00 49 1010.8
20260504005959 17 195 3.2 9.7 0.00 0.00 0.00 49 1010.8
20260504005456 17 170 4.8 4.8 0.00 0.00 0.00 49 1010.8
20260504004954 17 199 3.2 4.8 0.00 0.00 0.00 49 1010.9
20260504004451 17 216 1.6 3.2 0.00 0.00 0.00 49 1010.9
20260504003948 17 215 3.2 4.8 0.00 0.00 0.00 48 1011.0
20260504003444 18 188 3.2 6.4 0.00 0.00 0.00 48 1011.2
20260504002941 18 178 1.6 6.4 0.00 0.00 0.00 48 1011.0
20260504002438 18 165 4.8 9.7 0.00 0.00 0.00 47 1011.0
20260504001936 18 172 8.0 11.3 0.00 0.00 0.00 46 1010.9
20260504001433 18 191 6.4 11.3 0.00 0.00 0.00 46 1010.8
20260504000930 18 188 4.8 6.4 0.00 0.00 0.00 46 1011.2
20260504000427 19 179 4.8 9.7 0.00 0.00 0.00 45 1011.2
20260503235924 19 195 6.4 9.7 0.00 0.00 0.00 44 1011.2
20260503235422 19 211 3.2 9.7 0.00 0.00 0.00 44 1011.2
20260503234919 19 209 4.8 12.9 0.00 0.00 0.00 43 1011.4
20260503234416 19 188 3.2 9.7 0.00 0.00 0.00 44 1011.5
20260503233914 20 254 3.2 12.9 0.00 0.00 0.00 42 1011.8
20260503233410 20 197 3.2 11.3 0.00 0.00 0.00 43 1011.8
20260503232907 20 149 12.9 14.5 0.00 0.00 0.00 43 1011.8
20260503232404 20 236 3.2 9.7 0.00 0.00 0.00 42 1011.7
20260503231902 20 183 8.0 12.9 0.00 0.00 0.00 42 1012.1
20260503231359 20 229 4.8 9.7 0.00 0.00 0.00 41 1012.1
20260503230855 20 210 9.7 16.1 0.00 0.00 0.00 40 1012.0
20260503230352 21 187 6.4 9.7 0.00 0.00 0.00 39 1012.2
20260503225850 21 161 9.7 14.5 0.00 0.00 0.00 40 1012.2
20260503225345 21 179 14.5 17.7 0.00 0.00 0.00 39 1012.2
20260503224842 21 175 9.7 14.5 0.00 0.00 0.00 38 1012.1
20260503224339 21 179 14.5 17.7 0.00 0.00 0.00 40 1012.0
20260503223837 21 177 8.0 20.9 0.00 0.00 0.00 39 1012.0
20260503223334 21 215 4.8 20.9 0.00 0.00 0.00 38 1011.7
20260503222830 21 239 3.2 14.5 0.00 0.00 0.00 39 1011.9
20260503222329 21 226 4.8 11.3 0.00 0.00 0.00 39 1011.7
20260503221826 21 168 6.4 16.1 0.00 0.00 0.00 40 1011.5
20260503221325 21 203 9.7 16.1 0.00 0.00 0.00 40 1011.5
20260503220815 20 168 9.7 14.5 0.00 0.00 0.00 41 1011.6
20260503220312 20 194 12.9 20.9 0.00 0.00 0.00 41 1011.5
20260503215808 20 196 9.7 14.5 0.00 0.00 0.00 42 1011.7
20260503215306 20 189 9.7 16.1 0.00 0.00 0.00 42 1011.8
20260503214804 20 165 6.4 11.3 0.00 0.00 0.00 45 1011.9
20260503214300 19 199 6.4 14.5 0.00 0.00 0.00 43 1011.6
20260503213758 19 197 8.0 16.1 0.00 0.00 0.00 44 1011.7
20260503213255 19 182 11.3 20.9 0.00 0.00 0.00 44 1011.6
20260503212752 19 150 8.0 22.5 0.00 0.00 0.00 46 1011.7
20260503212250 19 149 6.4 16.1 0.00 0.00 0.00 45 1012.0
20260503211747 19 171 12.9 20.9 0.00 0.00 0.00 46 1012.1
20260503211243 19 181 11.3 22.5 0.00 0.00 0.00 46 1012.3
20260503210739 19 232 4.8 14.5 0.00 0.00 0.00 46 1012.0
20260503210237 19 171 11.3 25.7 0.00 0.00 0.00 45 1012.3
20260503205732 19 188 12.9 17.7 0.00 0.00 0.00 47 1012.6
20260503205228 19 238 8.0 16.1 0.00 0.00 0.00 46 1012.6
20260503204724 19 214 8.0 20.9 0.00 0.00 0.00 47 1012.7
20260503204223 19 177 9.7 20.9 0.00 0.00 0.00 45 1012.9
20260503203720 19 191 6.4 20.9 0.00 0.00 0.00 46 1013.0
20260503203217 19 220 14.5 20.9 0.00 0.00 0.00 49 1013.2
20260503202714 19 249 6.4 20.9 0.00 0.00 0.00 48 1013.4
20260503202212 19 184 4.8 20.9 0.00 0.00 0.00 49 1013.4
20260503201710 18 189 6.4 16.1 0.00 0.00 0.00 46 1013.6
20260503201207 19 213 11.3 16.1 0.00 0.00 0.00 46 1013.6
20260503200703 18 195 6.4 12.9 0.00 0.00 0.00 48 1013.9
20260503200200 18 205 6.4 9.7 0.00 0.00 0.00 49 1014.2
20260503195656 18 163 6.4 11.3 0.00 0.00 0.00 48 1014.4
20260503195153 18 163 6.4 11.3 0.00 0.00 0.00 49 1014.3
20260503194650 17 182 11.3 14.5 0.00 0.00 0.00 48 1014.8
20260503194145 17 182 11.3 14.5 0.00 0.00 0.00 47 1014.6
20260503193642 17 182 11.3 17.7 0.00 0.00 0.00 46 1015.0
20260503193138 17 268 11.3 24.1 0.00 0.00 0.00 45 1015.1
20260503192634 17 230 11.3 16.1 0.00 0.00 0.00 47 1015.3
20260503192130 18 195 6.4 6.4 0.00 0.00 0.00 48 1015.3
20260503191627 17 248 9.7 12.9 0.00 0.00 0.00 48 1015.5
20260503191124 17 222 12.9 22.5 0.00 0.00 0.00 49 1015.4
20260503190621 17 356 8.0 16.1 0.00 0.00 0.00 49 1015.6
20260503190117 17 179 9.7 25.7 0.00 0.00 0.00 50 1015.8
20260503185614 17 168 11.3 17.7 0.00 0.00 0.00 52 1015.9
20260503185114 17 200 8.0 25.7 0.00 0.00 0.00 48 1016.0
20260503184609 17 175 9.7 14.5 0.00 0.00 0.00 53 1016.1
20260503184106 17 184 12.9 20.9 0.00 0.00 0.00 50 1016.3
20260503183603 17 212 6.4 16.1 0.00 0.00 0.00 49 1016.4
20260503183100 17 240 17.7 27.4 0.00 0.00 0.00 50 1016.4
20260503182558 17 177 3.2 16.1 0.00 0.00 0.00 50 1016.5
20260503182056 16 199 11.3 16.1 0.00 0.00 0.00 51 1016.5
20260503181553 16 211 8.0 24.1 0.00 0.00 0.00 47 1016.4
20260503181049 16 238 9.7 20.9 0.00 0.00 0.00 53 1016.6
20260503180546 16 222 8.0 16.1 0.00 0.00 0.00 52 1016.4
20260503180044 16 183 9.7 20.9 0.00 0.00 0.00 56 1016.9
20260503175541 16 222 9.7 12.9 0.00 0.00 0.00 53 1016.8
20260503175038 16 178 6.4 12.9 0.00 0.00 0.00 50 1017.2
20260503174535 16 168 6.4 17.7 0.00 0.00 0.00 55 1017.3
20260503174031 16 244 8.0 14.5 0.00 0.00 0.00 54 1017.3
20260503173527 16 162 6.4 22.5 0.00 0.00 0.00 51 1017.5
20260503173023 16 197 17.7 27.4 0.00 0.00 0.00 52 1017.7
20260503172521 16 265 11.3 24.1 0.00 0.00 0.00 54 1017.9
20260503172018 15 174 11.3 20.9 0.00 0.00 0.00 55 1017.8
20260503171514 15 174 14.5 20.9 0.00 0.00 0.00 54 1018.1
20260503171012 15 169 12.9 22.5 0.00 0.00 0.00 53 1018.1
20260503170508 15 182 11.3 20.9 0.00 0.00 0.00 53 1018.3
20260503150900 12 184 12.9 16.1 0.00 0.00 0.00 60 1019.8
20260503150356 12 210 4.8 17.7 0.00 0.00 0.00 62 1019.8
20260503131250 8 264 1.6 3.2 0.00 0.00 0.00 79 1020.5
20260503130748 8 214 3.2 6.4 0.00 0.00 0.00 80 1020.3
20260503130245 8 232 0.0 6.4 0.00 0.00 0.00 81 1020.2
20260503120211 5 241 1.6 3.2 0.00 0.00 0.00 86 1020.1
20260503110638 5 222 1.6 3.2 0.00 0.00 0.00 83 1019.7
20260503110136 5 215 1.6 3.2 0.00 0.00 0.00 82 1019.7